This is the latest recevied weather packets stored in our database for station/object WS2Z. If no packets are shown the sender has not sent any weather packets the latest 10 day(s).
| Time | Temp. | Humidity | Pressure | Rain* | Wind** | Luminosity | Snow |
|---|---|---|---|---|---|---|---|
| 1777484622 | 30.56° C | 56% | 1016.1 hPa | 0 mm | - | 208 W/m² | - |
| 1777484318 | 30° C | 52% | 1016.2 hPa | 0 mm | - | 998 W/m² | - |
| 1777484014 | 30.56° C | 52% | 1016.6 hPa | 0 mm | - | 201 W/m² | - |
| 1777483711 | 30.56° C | 46% | 1016.4 hPa | 0 mm | - | 213 W/m² | - |
| 1777483407 | 31.11° C | 45% | 1016.3 hPa | 0 mm | - | 890 W/m² | - |
| 1777483102 | 30.56° C | 46% | 1016.5 hPa | 0 mm | - | 965 W/m² | - |
| 1777482800 | 30° C | 51% | 1016.6 hPa | 0 mm | - | 971 W/m² | - |
| 1777482495 | 30° C | 47% | 1016.7 hPa | 0 mm | - | 268 W/m² | - |
| 1777482193 | 30.56° C | 46% | 1016.6 hPa | 0 mm | - | 145 W/m² | - |
| 1777481890 | 30.56° C | 47% | 1016.7 hPa | 0 mm | - | 722 W/m² | - |
| 1777481587 | 30° C | 47% | 1017 hPa | 0 mm | - | 887 W/m² | - |
| 1777481285 | 30° C | 48% | 1016.9 hPa | 0 mm | - | 560 W/m² | - |
| 1777480981 | 30° C | 50% | 1017.1 hPa | 0 mm | - | 935 W/m² | - |
| 1777480677 | 30° C | 50% | 1017.3 hPa | 0 mm | - | 339 W/m² | - |
| 1777480374 | 30° C | 55% | 1017.3 hPa | 0 mm | - | 444 W/m² | - |
| 1777480070 | 28.89° C | 56% | 1017.3 hPa | 0 mm | - | 898 W/m² | - |
| 1777479766 | 28.89° C | 57% | 1017.4 hPa | 0 mm | - | 160 W/m² | - |
| 1777479465 | 28.89° C | 55% | 1017.4 hPa | 0 mm | - | 136 W/m² | - |
| 1777479161 | 28.89° C | 58% | 1017.5 hPa | 0 mm | - | 359 W/m² | - |
| 1777478858 | 30° C | 53% | 1017.4 hPa | 0 mm | - | 119 W/m² | - |
| 1777478554 | 29.44° C | 55% | 1017.4 hPa | 0 mm | - | 790 W/m² | - |
| 1777478251 | 28.89° C | 57% | 1017.6 hPa | 0 mm | - | 750 W/m² | - |
| 1777477947 | 28.89° C | 56% | 1017.7 hPa | 0 mm | - | 199 W/m² | - |
| 1777477643 | 28.33° C | 57% | 1017.6 hPa | 0 mm | - | 367 W/m² | - |
| 1777477340 | 28.33° C | 58% | 1018 hPa | 0 mm | - | 209 W/m² | - |
* Rain latest hour (hover to see other rain measurements)
** Current wind speed in m/s (hover to see current wind gust speed)